Hourly Data Report for December 04, 2019

All times are specified in Local Standard Time (LST). Add 1 hour to adjust for Daylight Saving Time where and when it is observed.

TORONTO INTL A
ONTARIO
Current Station Operator: NAVCAN

43°40'36.000" N
79°37'50.000" W
173.40 m
6158731
71624
YYZ

Download Data

Hourly Data (December 2019)
Hourly Data Report for December 4, 2019
TIME Temp Definition
°C
Dew Point Definition
°C
Rel Hum Definition
%
Wind Dir Definition
10's deg

Wind Spd Definition
km/h
Visibility Definition
km
Stn Press Definition
kPa
Hmdx Definition


Wind Chill Definition


Weather Definition


00:00 0.0 -2.7 82 19 21 24.1 97.83   -5 LegendNANA
01:00 -0.2 -1.9 88 18 24 19.3 97.73   -6 Cloudy
02:00 0.0 -2.1 86 18 21 24.1 97.69   -5 LegendNANA
03:00 0.2 -1.8 87 18 23 19.3 97.66     LegendNANA
04:00 0.1 -1.2 91 18 25 16.1 97.59     Snow
05:00 0.5 -0.8 91 18 23 16.1 97.54     Snow
06:00 0.6 -0.5 92 19 21 16.1 97.54     Snow
07:00 0.9 -0.5 90 18 21 19.3 97.54     Snow
08:00 1.1 -0.5 89 18 20 8.1 97.52     Snow,Fog
09:00 1.3 -0.2 90 20 17 6.4 97.50     Fog
10:00 1.8 -0.2 86 20 16 8.1 97.48     Fog
11:00 2.1 -0.3 84 22 14 16.1 97.48     LegendNANA
12:00 2.5 -1.1 77 24 9 19.3 97.43     LegendNANA
13:00 2.6 -1.9 72 27 19 24.1 97.40     Cloudy
14:00 2.7 -1.9 72 27 15 24.1 97.41     LegendNANA
15:00 2.4 -1.6 75 27 22 24.1 97.47     LegendNANA
16:00 2.1 -1.2 79 22 10 19.3 97.53     Cloudy
17:00 1.7 -0.8 83 21 13 19.3 97.60     Snow
18:00 1.8 -0.7 84 24 6 24.1 97.67     Snow
19:00 1.7 -0.9 83 28 14 24.1 97.72     Cloudy
20:00 2.0 -1.3 79 29 18 24.1 97.77     LegendNANA
21:00 1.6 -1.3 81 28 16 24.1 97.83     LegendNANA
22:00 1.6 -2.1 76 29 23 24.1 97.86     Mostly Cloudy
23:00 0.8 -1.5 85 28 23 24.1 97.95     Snow Showers

Notes on Data Quality.

Legend

  • E = Estimated
  • M = Missing
  • NA = Not Available
Date modified: